[[{"header":{"parameterUnit":"m.s-1","parameterCategory":1,"la1":30.2991,"la2":30.254,"lo1":-89.0895,"lo2":-89.0444,"dy":0.0017,"dx":0.0017,"nx":28,"ny":28,"refTime":"2024-03-12T21:00:00:Z","depth":0,"parameterNumber":2,"parameterNumberName":"U-component_of_WINDS"},"data":[0,0,0,0,0,0,0,0,0,0,0,0,0,0,0,0,0,0,0,0,0,0,0,0,0,0,0,0,0,0,0,0,0,0,0,0,0,0,0,0,0,0,0,0,0,0,0,0,0,0,0,0,0,0,0,0,0,0,-4.8433,-4.8434,0,-4.8499,-4.8499,-4.85,-4.8448,-4.8446,-4.8444,-4.8441,-4.8506,-4.851,-4.8513,0,0,0,0,0,0,0,0,0,0,0,0,0,-4.8262,-4.8266,-4.8433,-4.8434,-4.8435,-4.8498,-4.8499,-4.85,-4.8448,-4.8446,-4.8443,-4.844,-4.8505,-4.8509,-4.8514,0,0,0,0,0,0,0,0,0,0,0,0,0,-4.8333,-4.8267,-4.8433,-4.8417,-4.8416,-4.8498,-4.8499,-4.85,-4.8449,-4.8446,-4.8442,-4.8439,-4.8503,-4.8509,-4.8514,-4.8615,0,0,-4.8532,-4.8534,0,0,0,0,0,0,0,0,-4.8329,-4.8339,-4.8418,-4.8418,-4.8417,-4.8462,-4.8463,-4.8539,-4.845,-4.8436,-4.8441,-4.8438,-4.8494,-4.85,-4.8519,-4.8618,-4.8621,-4.8532,-4.8536,-4.8538,-4.854,0,0,0,0,0,0,0,-4.8324,-4.8336,-4.8459,-4.842,-4.8419,-4.8406,-4.8412,-4.8477,-4.8483,-4.8437,-4.8434,-4.8442,-4.8493,-4.8514,-4.8521,-4.8622,-4.8532,-4.8537,-4.854,-4.8543,-4.8807,-4.8811,0,0,0,0,0,0,-4.8321,-4.8332,-4.8457,-4.8461,-4.8364,-4.8411,-4.8419,-4.8451,-4.8482,-4.8484,-4.8445,-4.844,-4.8506,-4.8514,-4.8523,-4.8642,-4.8538,-4.8543,-4.8546,-4.8804,-4.8808,-4.8812,0,0,0,0,0,0,-4.8318,-4.8333,-4.8454,-4.8396,-4.841,-4.8418,-4.8455,-4.8454,-4.8475,-4.8488,-4.8488,-4.8466,-4.8504,-4.8515,-4.8593,-4.8643,-4.8546,-4.8551,-4.8799,-4.8805,-4.881,-4.8882,0,0,0,0,0,0,-4.8313,-4.8332,-4.837,-4.8397,-4.8414,-4.8524,-4.8458,-4.8458,-4.8485,-4.8479,-4.8507,-4.8509,-4.8502,-4.8585,-4.8598,-4.8649,-4.8555,-4.8795,-4.8802,-4.8808,-4.8875,-4.8889,-4.8901,0,0,0,0,0,-4.8307,-4.8388,-4.8373,-4.8388,-4.8462,-4.8527,-4.8536,-4.8527,-4.849,-4.8528,-4.8537,-4.8508,-4.8637,-4.8593,-4.8608,-4.8662,-4.8791,-4.88,-4.8808,-4.8869,-4.8886,-4.8901,0,0,0,0,0,0,-4.8365,-4.8391,-4.8374,-4.8466,-4.8495,-4.8518,-4.8566,-4.8546,-4.8585,-4.8577,-4.8564,-4.8571,-4.8653,-4.8666,-4.8617,-4.8761,-4.8708,-4.8719,-4.8749,-4.8766,-4.8779,-4.8772,-4.856,0,0,0,0,0,-4.8389,-4.844,-4.846,-4.8539,-4.8554,-4.8558,-4.8586,-4.8577,-4.8606,-4.8617,-4.8631,-4.866,-4.8707,-4.8737,-4.8781,-4.8878,-4.8883,-4.8922,-4.8935,-4.8946,-4.8955,-4.9006,-4.9024,-4.8839,-4.8839,-4.8839,0,0,-4.8438,-4.8458,-4.8491,-4.8551,-4.8572,-4.8624,-4.8568,-4.8626,-4.8664,-4.8626,-4.87,-4.8712,-4.8743,-4.8831,-4.887,-4.8843,-4.9008,-4.8957,-4.8965,-4.8968,-4.9016,-4.9034,-4.9049,-4.8844,-4.8843,-4.8842,0,0,-4.8553,-4.8575,-4.8642,-4.8665,-4.8699,-4.8701,-4.8718,-4.8745,-4.8751,-4.8826,-4.8798,-4.8844,-4.8925,-4.8948,-4.8971,-4.9098,-4.9072,-4.9113,-4.918,-4.923,-4.9244,-4.9257,-4.93,-4.9316,-4.9123,-4.9123,-4.9123,0,-4.8609,-4.8687,-4.8679,-4.874,-4.8766,-4.8736,-4.8804,-4.8826,-4.8872,-4.8891,-4.8862,-4.8963,-4.8982,-4.9074,-4.9105,-4.9125,-4.9143,-4.9107,-4.9243,-4.9256,-4.9268,-4.9309,-4.9325,-4.9127,-4.9127,-4.9126,-4.9126,0,-4.8754,-4.8809,-4.886,-4.8905,-4.8938,-4.9002,-4.9003,-4.9038,-4.9027,-4.9033,-4.911,-4.9132,-4.9179,-4.9202,-4.9191,-4.9293,-4.9275,-4.9245,-4.919,-4.929,-4.9328,-4.9344,-4.9134,-4.9132,-4.9131,-4.913,0,0,-4.8903,-4.8946,-4.8965,-4.8985,-4.9021,-4.9063,-4.9126,-4.9174,-4.9203,-4.9237,-4.9288,-4.9359,-4.9331,-4.9357,-4.9349,-4.9394,-4.9491,-4.9358,-4.9359,-4.938,-4.9602,-4.9622,-4.964,-4.9476,-4.9479,-4.9482,-4.9599,0,-4.9018,-4.9128,-4.9124,-4.9225,-4.9275,-4.9249,-4.9304,-4.9331,-4.9339,-4.9383,-4.9391,-4.9441,-4.9402,-4.9417,-4.946,-4.947,-4.9535,-4.9462,-4.9522,-4.9524,-4.9511,-4.9661,-4.9682,-4.9791,-4.9614,-4.9616,-4.9618,0,-4.9166,-4.9205,-4.9313,-4.9342,-4.9362,-4.9412,-4.9455,-4.9498,-4.9529,-4.9532,-4.9562,-4.9547,-4.9611,-4.9558,-4.9644,-4.9595,-4.962,-4.9629,-4.9633,-4.9635,-4.9574,-4.9664,-4.9826,-4.9841,-4.9642,-4.964,-4.9639,0,-4.9261,-4.9342,-4.9416,-4.9435,-4.9471,-4.9506,-4.9523,-4.9551,-4.958,-4.9619,-4.9637,-4.9683,-4.9707,-4.9742,-4.9741,-4.9703,-4.9828,-4.9775,-4.983,-4.983,-4.9854,-4.9852,-5.0019,-4.9876,-4.9876,-4.9876,-4.9875,0,-4.9388,-4.9453,-4.9459,-4.9504,-4.9577,-4.9573,-4.9645,-4.9658,-4.9684,-4.9731,-4.9712,-4.9757,-4.9754,-4.9799,-4.9798,-4.9869,-4.9881,-4.9884,-4.9882,-4.9883,-4.9882,-4.9896,-4.9887,-4.988,-4.9879,-4.9878,-4.9877,0,-4.9504,-4.9511,-4.959,-4.9619,-4.9628,-4.968,-4.9705,-4.9748,-4.9755,-4.9815,-4.9829,-4.984,-4.9892,-4.9896,-4.9956,-4.9955,-5.004,-5.0032,-5.003,-5.0027,-5.0081,-5.0074,-5.0259,-5.0282,-5.0128,-5.013,-5.0131,0,-4.9583,-4.9633,-4.9668,-4.9699,-4.9718,-4.9767,-4.9797,-4.9796,-4.9828,-4.9868,-4.9906,-4.9957,-4.9997,-5.0081,-5.0094,-5.0141,-5.0131,-5.0193,-5.0138,-5.0137,-5.0129,-5.0124,-5.0128,-5.0202,-5.0204,-5.0206,-5.0207,0,-4.972,-4.9722,-4.9766,-4.9812,-4.9849,-4.9885,-4.9919,-4.9945,-4.9947,-4.9984,-5.0038,-5.0069,-5.0131,-5.0181,-5.0227,-5.0243,-5.0225,-5.0225,-5.0239,-5.0239,-5.0234,-5.0235,-5.0055,-5.0219,-5.0218,-5.0217,-5.0217,-5.0216,-4.9818,-4.9861,-4.9893,-4.9943,-4.9969,-5.0001,-5.0043,-5.0056,-5.0101,-5.0152,-5.0149,-5.0208,-5.0239,-5.0298,-5.0319,-5.0365,-5.0343,-5.0365,-5.037,-5.0375,-5.0379,-5.0231,-5.0373,-5.0373,-5.0373,-5.0372,-5.0372,0,-4.9952,-4.9972,-5.0019,-5.0067,-5.0106,-5.0089,-5.0125,-5.0159,-5.0211,-5.0243,-5.0283,-5.0345,-5.0394,-5.0412,-5.046,-5.0493,-5.0486,-5.0505,-5.0501,-5.0505,-5.0396,-5.0378,-5.051,-5.051,-5.051,-5.051,-5.051,-5.051,-5.0026,-5.0098,-5.0104,-5.0188,-5.0207,-5.0265,-5.0287,-5.0317,-5.0342,-5.0412,-5.0453,-5.0465,-5.0491,-5.0541,-5.0585,-5.0589,-5.0606,-5.0629,-5.0629,-5.0527,-5.0513,-5.0499,-5.0481,-5.0634,-5.0634,-5.0733,-5.0734,-5.0735]},{"header":{"parameterUnit":"m.s-1","parameterCategory":1,"la1":30.2991,"la2":30.254,"lo1":-89.0895,"lo2":-89.0444,"dy":0.0017,"dx":0.0017,"nx":28,"ny":28,"refTime":"2024-03-12T21:00:00:Z","depth":0,"parameterNumber":3,"parameterNumberName":"V-component_of_WINDS"},"data":[0,0,0,0,0,0,0,0,0,0,0,0,0,0,0,0,0,0,0,0,0,0,0,0,0,0,0,0,0,0,0,0,0,0,0,0,0,0,0,0,0,0,0,0,0,0,0,0,0,0,0,0,0,0,0,0,0,0,2.1429,2.1431,0,2.1584,2.1585,2.1587,2.1649,2.1648,2.1648,2.1647,2.18,2.1804,2.1809,0,0,0,0,0,0,0,0,0,0,0,0,0,2.1183,2.1187,2.1429,2.1431,2.1433,2.1583,2.1586,2.1588,2.1649,2.1648,2.1648,2.1647,2.1799,2.1804,2.1809,0,0,0,0,0,0,0,0,0,0,0,0,0,2.1309,2.1189,2.1429,2.1482,2.1488,2.1583,2.1586,2.1588,2.1649,2.1648,2.1648,2.1647,2.1797,2.1803,2.181,2.1862,0,0,2.183,2.1833,0,0,0,0,0,0,0,0,2.1302,2.1318,2.1472,2.1478,2.1485,2.1596,2.1555,2.168,2.1649,2.1587,2.1647,2.1647,2.1732,2.1744,2.1774,2.1869,2.1876,2.1831,2.1835,2.1838,2.184,0,0,0,0,0,0,0,2.1293,2.1312,2.149,2.1474,2.1482,2.1497,2.1514,2.1579,2.1661,2.1593,2.1598,2.1615,2.1736,2.1768,2.1778,2.1878,2.1831,2.1836,2.1841,2.1843,2.2026,2.2027,0,0,0,0,0,0,2.1276,2.1304,2.1485,2.1495,2.139,2.1501,2.1521,2.1561,2.1661,2.1675,2.1616,2.1618,2.1757,2.1771,2.1784,2.1854,2.1838,2.1844,2.1848,2.2025,2.2026,2.2027,0,0,0,0,0,0,2.1271,2.1292,2.1479,2.1401,2.1426,2.1506,2.1551,2.1565,2.1597,2.1678,2.1692,2.1633,2.1757,2.1775,2.1843,2.186,2.1847,2.1853,2.2024,2.2026,2.2027,2.1992,0,0,0,0,0,0,2.1263,2.1289,2.1311,2.1401,2.143,2.1536,2.1552,2.1568,2.1609,2.1613,2.1698,2.1712,2.1758,2.1833,2.185,2.1869,2.1858,2.2023,2.2025,2.2026,2.1992,2.1992,2.1992,0,0,0,0,0,2.1254,2.1293,2.1311,2.1333,2.1458,2.1537,2.1554,2.1607,2.161,2.1631,2.1684,2.1709,2.1855,2.184,2.1859,2.188,2.2022,2.2024,2.2026,2.1992,2.1992,2.1992,0,0,0,0,0,0,2.12,2.1305,2.1327,2.1396,2.1458,2.1547,2.1577,2.1605,2.1665,2.1666,2.1728,2.1747,2.1811,2.1852,2.1833,2.1937,2.1941,2.1947,2.1908,2.1908,2.1908,2.1897,2.1863,0,0,0,0,0,2.1196,2.1253,2.1342,2.1394,2.1424,2.1495,2.1531,2.1568,2.1633,2.1658,2.1716,2.1777,2.1837,2.1875,2.1934,2.1998,2.2018,2.2022,2.2022,2.2022,2.2026,2.2065,2.2068,2.2034,2.2034,2.2034,0,0,2.1188,2.1253,2.1285,2.1385,2.1437,2.1493,2.1516,2.1574,2.1617,2.1667,2.1736,2.178,2.1853,2.192,2.1952,2.1956,2.204,2.2024,2.2023,2.2028,2.2067,2.207,2.2073,2.2035,2.2035,2.2035,0,0,2.1204,2.1258,2.1309,2.1361,2.1441,2.1488,2.15,2.1587,2.1619,2.169,2.1729,2.178,2.1881,2.1932,2.1971,2.2009,2.2034,2.2026,2.2025,2.2062,2.2065,2.2068,2.2082,2.2086,2.203,2.203,2.203,0,2.1183,2.1272,2.1331,2.1389,2.1432,2.1482,2.1534,2.1581,2.1675,2.1703,2.1707,2.1837,2.1889,2.197,2.1979,2.2009,2.2024,2.2016,2.206,2.2064,2.2067,2.2081,2.2086,2.2029,2.2029,2.2029,2.2029,0,2.1244,2.1305,2.1336,2.1429,2.1475,2.1529,2.1596,2.1636,2.1669,2.1716,2.1788,2.1853,2.1927,2.1949,2.198,2.2034,2.2035,2.2048,2.2053,2.2068,2.2082,2.2088,2.2026,2.2027,2.2027,2.2028,0,0,2.1227,2.1354,2.1365,2.1408,2.1501,2.1548,2.1605,2.1681,2.1714,2.1777,2.1827,2.1913,2.1927,2.1971,2.2009,2.2041,2.2069,2.2051,2.2054,2.2053,2.2134,2.2124,2.2129,2.2087,2.2088,2.2089,2.2128,0,2.1256,2.1362,2.1418,2.15,2.1557,2.1607,2.1657,2.1718,2.1764,2.1819,2.1868,2.1929,2.1943,2.197,2.2005,2.2058,2.2086,2.2056,2.2132,2.2135,2.2113,2.2137,2.2125,2.2159,2.2134,2.2135,2.2136,0,2.1303,2.1369,2.1457,2.1546,2.1572,2.1615,2.169,2.1742,2.1813,2.1844,2.1895,2.1933,2.1994,2.1995,2.2081,2.2059,2.2094,2.2125,2.2128,2.2137,2.2136,2.2147,2.2171,2.2177,2.2145,2.2145,2.2144,0,2.1283,2.1394,2.1462,2.1497,2.1602,2.1632,2.1676,2.1747,2.179,2.1854,2.1883,2.1952,2.1991,2.2044,2.2099,2.2095,2.218,2.2185,2.2207,2.2206,2.2222,2.2221,2.2253,2.2244,2.2244,2.2244,2.2244,0,2.131,2.1362,2.1455,2.1497,2.1557,2.1621,2.1678,2.1726,2.179,2.1841,2.1887,2.1934,2.2005,2.206,2.2104,2.2169,2.2185,2.2212,2.2223,2.2208,2.2205,2.2232,2.2231,2.2245,2.2245,2.2244,2.2244,0,2.1298,2.1362,2.144,2.1534,2.1558,2.1599,2.1678,2.1721,2.177,2.1834,2.1853,2.193,2.1998,2.2059,2.2148,2.2178,2.2244,2.2257,2.2221,2.2227,2.2246,2.2244,2.2297,2.2308,2.229,2.2291,2.2291,0,2.131,2.1352,2.1451,2.1491,2.1535,2.1597,2.1642,2.1706,2.175,2.1836,2.1868,2.194,2.2002,2.2108,2.2171,2.224,2.2255,2.227,2.2266,2.2251,2.2257,2.2254,2.2259,2.2269,2.2269,2.2269,2.2269,0,2.1326,2.1357,2.142,2.1496,2.1549,2.161,2.1673,2.1702,2.1779,2.1826,2.1898,2.1946,2.2039,2.211,2.2187,2.2231,2.2263,2.227,2.2279,2.2264,2.2242,2.2255,2.2221,2.2268,2.2268,2.2268,2.2268,2.2268,2.1328,2.1368,2.1445,2.1515,2.157,2.1629,2.1674,2.173,2.1792,2.1875,2.1909,2.1982,2.2053,2.216,2.2205,2.2263,2.2268,2.2281,2.2284,2.2286,2.2284,2.2232,2.2276,2.2277,2.2277,2.2277,2.2277,0,2.1347,2.14,2.1464,2.1552,2.1607,2.1635,2.1707,2.175,2.1815,2.188,2.1941,2.2024,2.2094,2.2163,2.2237,2.227,2.2286,2.2287,2.2285,2.2295,2.2274,2.226,2.2272,2.2272,2.2272,2.2272,2.2272,2.2272,2.1363,2.1434,2.1474,2.1573,2.1625,2.17,2.1738,2.1793,2.1846,2.1937,2.1997,2.2043,2.211,2.2189,2.2254,2.2273,2.2298,2.2295,2.2317,2.2296,2.2296,2.2296,2.2283,2.23,2.23,2.2333,2.2333,2.2334]}]]